Wind_Speed
7 7 4 1 2 4 1 3 6 9 14 19 5 6 17 30 23 23 24 29 32 31 34 36 39 41 39 41 39 41 43 44 46 47 45 47 44 48 57 54 45 45 48 48
13 6 10 11 9 6 4 7 9 16 17 14 19 14 17 26 20 20 22 25 32 30 32 37 40 41 40 42 44 44 46 45 47 47 49 46 47 52 58 57 50 47 49 51
21 19 18 13 17 13 12 10 18 23 23 22 18 18 27 24 9 24 34 32 34 34 36 39 37 33 34 37 43 45 48 49 48 50 53 52 54 57 59 59 55 51 51 53
19 16 22 21 15 20 24 13 18 23 26 27 23 24 21 27 13 17 35 43 41 38 43 42 35 30 35 37 42 48 55 57 50 54 55 55 56 59 59 56 56 54 53 54
24 21 20 23 19 19 21 20 20 20 26 25 28 28 26 22 17 29 38 38 36 35 44 46 35 40 45 49 50 53 55 63 58 56 56 57 60 60 59 59 57 56 56 58
26 26 23 24 22 20 19 17 21 21 24 25 26 26 28 35 35 32 29 34 26 33 39 46 45 45 44 46 51 57 60 60 57 55 56 58 60 61 61 60 58 56 56 53
30 28 26 24 23 22 22 26 28 27 30 28 25 27 34 32 30 27 30 35 31 38 44 44 39 38 46 47 48 52 50 53 55 58 61 63 65 64 62 60 58 57 57 60
24 25 26 27 25 28 27 27 29 28 29 30 34 29 30 29 32 29 28 29 37 41 46 45 42 34 42 50 48 42 47 60 61 63 67 67 67 68 67 64 64 63 62 60
22 23 26 26 26 25 23 24 29 30 30 29 22 29 33 30 27 28 30 32 38 39 43 43 38 33 38 46 47 54 58 68 78 76 71 70 71 70 70 69 68 67 67 66
23 23 23 27 27 26 23 26 28 30 31 29 32 35 31 33 37 38 36 35 32 32 38 36 33 29 34 42 54 59 60 69 84 85 79 79 77 77 77 74 72 72 72 71
23 27 28 32 29 25 23 25 24 25 23 27 26 32 33 33 37 40 36 35 36 30 30 38 33 27 29 37 48 59 73 80 87 83 81 79 77 78 78 77 78 77 74 70
25 26 27 26 23 25 27 27 27 27 25 28 30 32 33 36 37 37 34 34 35 33 33 23 19 24 37 46 49 61 73 78 82 76 75 76 78 82 78 74 71 68 63 57
23 24 24 23 23 26 27 28 28 31 30 32 30 30 29 31 34 33 30 27 29 33 28 24 21 34 49 51 61 69 77 75 69 69 72 76 81 77 65 67 66 60 58 49
24 24 26 25 24 25 28 29 30 30 29 28 25 29 31 32 31 24 28 29 34 43 51 49 48 48 53 56 61 67 71 70 67 69 73 76 73 59 62 63 57 48 47 43
27 25 25 26 28 29 28 28 27 23 24 25 25 30 34 33 30 29 33 33 33 46 55 54 53 55 58 59 62 66 63 61 63 66 68 67 63 57 59 52 47 47 45 40
26 26 27 26 26 26 26 26 25 23 25 27 30 28 38 40 41 44 41 34 37 54 62 61 59 73 65 63 63 61 59 57 60 59 65 58 53 57 51 47 48 47 45 44
24 22 24 23 23 23 22 26 28 26 27 30 28 33 43 47 42 39 44 49 52 61 64 64 66 80 68 64 60 58 57 58 51 57 57 53 55 50 48 48 47 48 47 45
23 21 21 23 21 23 27 27 28 31 33 38 26 31 47 58 49 52 45 48 62 67 63 61 77 76 70 62 56 54 52 50 54 58 50 53 49 51 48 50 51 49 47 46
22 21 21 24 25 28 28 32 32 36 40 39 34 44 48 54 55 50 59 54 54 56 58 72 76 79 70 58 53 55 53 51 54 51 51 54 55 53 51 47 44 43 45 47
23 22 24 27 28 29 31 37 43 36 39 42 39 46 56 42 36 49 37 55 67 57 62 72 76 66 66 61 58 55 51 50 51 48 54 52 49 47 43 42 46 46 50 52
28 28 28 26 27 29 27 31 24 21 34 40 41 56 48 47 45 44 40 62 67 61 72 77 71 71 70 62 58 57 51 50 51 48 52 46 44 43 46 48 47 48 51 55
35 34 34 33 35 32 33 33 28 38 40 41 45 53 58 28 37 41 48 67 53 68 67 69 71 74 67 59 57 55 52 54 47 50 50 44 42 45 47 47 47 49 53 57
38 37 40 40 38 38 37 41 43 45 36 49 51 39 43 39 40 49 64 65 53 66 73 72 70 70 66 59 57 57 54 45 48 51 46 44 45 47 47 46 49 52 55 57
43 45 49 49 48 47 46 47 46 44 43 46 37 40 45 50 56 63 56 46 59 67 67 64 67 65 62 56 57 52 41 44 49 43 44 46 49 47 46 48 50 54 55 59
45 48 51 52 51 49 50 52 48 44 39 38 37 50 58 55 56 53 53 59 65 68 65 64 63 63 55 54 46 39 41 42 39 42 44 46 48 48 48 50 54 56 57 61
50 53 55 58 61 60 58 56 55 51 46 55 59 59 57 66 59 63 70 69 67 67 64 60 67 59 52 45 37 35 37 40 42 44 45 47 48 49 51 54 55 58 62 66
Wind_Direction
301 304 3 327 280 16 17 82 62 40 12 16 345 324 347 351 358 6 357 355 355 349 347 345 340 338 336 331 336 329 332 336 337 338 338 337 333 336 336 337 336 335 334 332
274 284 273 269 318 324 344 247 296 326 344 6 1 346 350 342 333 357 350 343 339 333 337 336 335 332 330 331 335 330 332 336 337 337 334 333 328 329 332 334 335 333 332 334
286 282 294 293 296 278 332 284 303 325 333 336 346 348 355 349 328 355 341 332 327 331 328 326 334 334 330 334 339 341 339 337 335 332 331 331 329 329 330 332 333 331 330 329
248 266 282 293 292 282 300 282 304 320 322 329 330 332 327 342 270 292 325 327 329 326 321 320 329 328 323 329 335 333 337 342 339 331 331 330 329 328 328 331 331 330 326 323
274 257 280 290 294 309 310 305 299 297 310 315 315 322 321 330 316 287 306 316 318 317 327 325 314 323 327 323 326 332 332 333 336 333 331 328 327 327 327 329 329 326 324 324
277 281 280 288 290 296 303 305 299 303 312 322 314 314 314 320 316 303 308 313 307 323 321 319 322 328 333 330 328 326 327 328 333 332 331 330 329 328 328 327 327 324 322 324
272 277 278 283 284 292 294 293 294 297 302 310 304 302 306 315 322 307 306 315 319 318 314 312 323 325 329 331 332 329 331 337 332 330 330 330 330 328 328 326 326 325 323 322
270 274 273 279 292 295 299 295 296 298 298 307 295 298 307 310 319 316 316 310 308 308 317 314 318 311 335 331 330 332 332 337 335 331 332 330 329 327 326 325 324 323 321 319
270 272 273 278 299 300 291 282 295 295 297 301 302 309 303 312 313 310 313 318 321 321 319 327 316 293 320 320 324 322 313 320 326 331 330 329 328 328 326 324 321 319 316 315
263 270 281 280 297 295 287 288 303 307 308 308 307 307 312 320 318 318 329 326 325 320 326 337 309 296 302 310 310 312 312 315 321 323 327 328 329 328 326 324 320 318 315 314
253 263 272 279 288 288 287 296 304 307 308 300 302 311 320 320 311 316 321 325 320 324 320 330 317 300 311 316 311 310 312 316 315 323 329 328 327 326 324 321 318 316 314 312
261 258 271 278 279 285 294 298 303 302 304 302 305 317 319 315 315 316 324 329 328 334 329 339 319 293 308 300 300 303 306 314 318 326 328 326 324 323 323 321 322 321 322 317
272 279 280 274 273 281 288 295 300 303 309 310 317 315 312 315 318 322 333 338 344 347 344 313 289 280 292 299 303 307 307 317 323 325 325 321 323 323 327 329 328 330 328 323
270 274 278 281 283 284 288 294 298 303 308 320 321 316 314 317 310 310 329 327 331 335 343 337 330 322 317 314 310 312 317 318 322 322 320 322 322 325 333 333 334 337 335 334
269 273 278 284 290 291 296 299 302 312 311 308 315 318 323 325 316 308 313 314 316 329 335 332 329 325 322 322 321 320 319 322 321 323 324 324 323 323 335 338 342 346 351 353
268 273 280 287 290 294 300 305 306 308 307 312 322 323 326 318 323 315 317 305 309 322 323 324 327 332 328 326 325 323 322 323 327 328 325 325 330 334 338 343 348 349 350 352
270 275 282 282 288 294 299 306 302 302 305 304 309 321 334 329 317 317 321 316 315 318 315 317 322 331 326 326 325 327 329 326 331 333 334 333 335 337 340 343 344 343 344 346
274 277 277 283 289 295 297 301 307 305 307 314 306 311 316 325 319 314 315 306 313 319 315 319 325 323 321 325 331 330 328 328 333 342 341 333 338 340 340 338 338 339 339 340
272 272 275 281 288 294 297 301 301 300 302 306 298 296 311 326 314 313 319 319 325 323 325 325 320 321 325 328 329 332 332 334 338 342 340 337 333 334 335 337 340 339 337 338
261 268 273 276 283 291 298 306 299 297 295 303 302 310 321 320 321 311 314 337 336 322 323 319 323 327 329 328 329 331 330 330 339 336 336 335 334 336 339 340 337 339 342 342
263 267 274 278 283 292 301 305 311 291 310 307 288 310 312 308 297 295 310 327 325 324 324 328 326 328 329 328 331 330 331 336 335 335 335 336 338 341 341 339 340 342 342 341
267 271 275 279 283 283 285 295 281 289 302 306 306 311 309 290 292 293 305 317 319 318 326 324 325 328 329 327 328 327 330 333 333 332 335 337 337 340 340 337 337 339 338 336
278 278 279 279 280 282 284 289 290 294 289 301 298 294 294 285 286 288 304 307 308 314 322 323 327 325 326 325 326 326 327 330 331 332 334 333 337 339 336 334 335 336 336 335
279 281 281 280 280 281 283 285 287 288 282 292 284 285 286 286 285 291 298 301 311 318 317 324 323 321 324 323 323 325 330 330 328 332 333 335 334 333 334 334 334 334 336 335
277 278 278 281 283 284 288 289 289 286 283 268 279 290 293 294 300 309 306 310 312 314 321 322 318 322 323 321 323 327 330 330 331 331 332 330 330 331 334 333 333 333 334 335
275 275 275 279 286 287 285 283 283 288 283 276 277 286 278 282 292 296 300 304 308 314 318 311 316 324 325 325 327 333 333 330 328 328 328 331 332 333 333 331 333 334 336 337
Height
10960 10961 10962 10961 10961 10959 10958 10956 10953 10949 10946 10944 10940 10939 10937 10932 10928 10925 10922 10918 10913 10910 10903 10897 10893 10888 10883 10878 10872 10863 10856 10849 10841 10833 10825 10817 10809 10802 10795 10789 10782 10773 10765 10756
10961 10961 10961 10961 10961 10961 10960 10957 10954 10949 10947 10944 10941 10937 10934 10931 10927 10923 10919 10915 10912 10907 10898 10893 10889 10884 10879 10875 10868 10861 10852 10844 10836 10829 10821 10814 10806 10798 10789 10780 10774 10766 10757 10748
10958 10958 10958 10958 10958 10958 10957 10953 10946 10944 10943 10941 10938 10934 10932 10929 10926 10920 10917 10913 10910 10902 10895 10887 10884 10881 10873 10869 10863 10855 10847 10839 10831 10823 10816 10809 10801 10791 10783 10772 10763 10758 10749 10741
10957 10955 10955 10955 10956 10955 10953 10953 10945 10942 10940 10937 10934 10933 10929 10927 10924 10920 10915 10907 10901 10897 10890 10882 10877 10872 10866 10859 10854 10847 10841 10833 10825 10817 10810 10801 10793 10785 10776 10767 10757 10749 10742 10733
10951 10952 10952 10951 10950 10950 10949 10948 10945 10940 10937 10936 10932 10929 10927 10927 10925 10918 10909 10906 10897 10893 10883 10874 10869 10865 10859 10850 10844 10837 10833 10825 10818 10811 10804 10796 10786 10777 10768 10759 10748 10740 10732 10723
10947 10948 10948 10947 10946 10946 10945 10943 10941 10938 10934 10935 10928 10926 10923 10920 10918 10910 10908 10902 10895 10889 10880 10872 10864 10859 10852 10845 10837 10829 10825 10818 10811 10805 10797 10788 10779 10770 10760 10751 10742 10731 10722 10714
10944 10943 10942 10941 10941 10941 10941 10938 10935 10934 10931 10930 10925 10922 10920 10917 10913 10907 10902 10895 10891 10884 10874 10866 10861 10853 10847 10839 10831 10823 10818 10810 10802 10794 10789 10779 10768 10759 10749 10740 10731 10722 10711 10702
10939 10938 10936 10936 10937 10935 10935 10933 10928 10926 10924 10922 10920 10916 10912 10911 10907 10899 10896 10890 10888 10881 10869 10860 10855 10850 10841 10834 10823 10816 10810 10803 10794 10785 10777 10769 10759 10748 10738 10728 10718 10709 10701 10691
10934 10933 10931 10930 10932 10931 10929 10927 10923 10920 10918 10916 10914 10910 10905 10904 10900 10895 10890 10885 10877 10872 10863 10856 10847 10844 10841 10832 10820 10812 10802 10793 10785 10776 10769 10760 10750 10739 10729 10718 10707 10697 10688 10678
10930 10927 10925 10925 10928 10924 10922 10920 10917 10916 10913 10911 10909 10903 10898 10895 10888 10883 10882 10877 10873 10867 10858 10852 10842 10840 10838 10826 10815 10806 10795 10785 10777 10767 10759 10749 10739 10725 10713 10701 10690 10679 10670 10661
10924 10922 10921 10921 10920 10918 10916 10915 10913 10912 10910 10908 10904 10901 10897 10892 10882 10876 10876 10872 10868 10862 10853 10844 10838 10833 10830 10822 10812 10797 10784 10779 10768 10756 10745 10735 10725 10713 10700 10686 10673 10663 10653 10643
10919 10919 10918 10917 10916 10913 10911 10909 10908 10906 10905 10901 10898 10895 10889 10882 10877 10871 10868 10862 10857 10854 10847 10843 10833 10827 10822 10818 10810 10797 10779 10774 10759 10746 10734 10723 10712 10702 10688 10674 10661 10649 10637 10628
10914 10913 10913 10914 10913 10909 10906 10905 10904 10901 10900 10895 10892 10887 10881 10875 10868 10860 10859 10856 10853 10850 10844 10841 10837 10829 10820 10812 10801 10788 10775 10762 10749 10738 10725 10714 10704 10691 10676 10663 10649 10637 10626 10618
10909 10909 10907 10907 10907 10905 10902 10901 10899 10895 10893 10887 10884 10880 10875 10870 10863 10858 10853 10849 10845 10839 10833 10830 10826 10819 10809 10800 10791 10776 10764 10753 10742 10731 10718 10707 10695 10683 10670 10655 10642 10630 10619 10611
10904 10904 10902 10901 10899 10898 10896 10893 10891 10889 10886 10883 10880 10877 10872 10866 10858 10856 10851 10843 10838 10833 10830 10825 10819 10811 10803 10789 10775 10763 10753 10744 10733 10722 10711 10699 10688 10676 10663 10651 10640 10629 10620 10612
10899 10899 10897 10896 10892 10891 10890 10885 10883 10882 10878 10875 10873 10868 10865 10857 10852 10846 10844 10839 10832 10828 10821 10815 10807 10800 10787 10774 10760 10752 10743 10731 10723 10715 10703 10691 10679 10668 10657 10647 10637 10628 10621 10613
10894 10894 10891 10889 10886 10885 10884 10878 10875 10875 10872 10869 10865 10858 10851 10849 10844 10838 10836 10833 10827 10822 10814 10806 10796 10785 10774 10763 10754 10741 10729 10724 10719 10707 10692 10681 10672 10662 10652 10643 10635 10627 10619 10612
10889 10888 10886 10883 10881 10879 10875 10873 10868 10863 10859 10860 10855 10850 10847 10841 10834 10829 10826 10821 10814 10810 10802 10795 10788 10779 10769 10755 10740 10732 10726 10717 10706 10694 10684 10676 10668 10660 10651 10641 10631 10623 10616 10608
10883 10882 10879 10877 10875 10872 10871 10867 10864 10859 10850 10847 10848 10842 10839 10831 10824 10819 10816 10809 10802 10795 10790 10783 10775 10762 10751 10740 10731 10724 10715 10706 10696 10686 10679 10672 10663 10655 10648 10639 10630 10622 10612 10603
10875 10875 10872 10871 10869 10868 10866 10861 10855 10851 10845 10838 10832 10828 10832 10824 10822 10814 10807 10797 10790 10784 10779 10774 10764 10752 10741 10731 10723 10714 10707 10698 10690 10683 10676 10667 10658 10650 10643 10636 10627 10617 10605 10595
10868 10866 10865 10864 10864 10863 10861 10854 10846 10844 10841 10836 10830 10827 10821 10817 10810 10805 10794 10785 10778 10769 10762 10754 10745 10737 10729 10720 10713 10705 10697 10689 10683 10677 10671 10663 10656 10645 10636 10629 10621 10611 10600 10589
10858 10858 10858 10859 10856 10856 10850 10844 10840 10836 10834 10830 10825 10818 10813 10805 10799 10794 10788 10782 10775 10767 10758 10747 10736 10726 10720 10712 10707 10699 10690 10683 10677 10672 10665 10658 10650 10641 10634 10627 10618 10609 10599 10587
10850 10849 10846 10846 10846 10846 10842 10836 10832 10829 10825 10820 10815 10810 10805 10800 10792 10790 10786 10782 10773 10766 10757 10749 10735 10722 10714 10705 10700 10692 10684 10678 10673 10666 10659 10652 10645 10637 10631 10623 10614 10603 10594 10583
10840 10837 10832 10833 10832 10833 10831 10826 10824 10821 10817 10814 10805 10799 10796 10795 10790 10785 10780 10774 10766 10758 10753 10744 10735 10724 10713 10703 10695 10686 10679 10673 10667 10661 10654 10645 10639 10634 10626 10617 10609 10598 10590 10577
10829 10825 10818 10817 10818 10820 10819 10816 10814 10809 10803 10799 10797 10791 10784 10780 10775 10769 10765 10759 10756 10750 10742 10735 10729 10718 10708 10701 10692 10683 10676 10670 10663 10656 10649 10643 10635 10626 10618 10610 10602 10591 10583 10571
10817 10812 10808 10805 10806 10808 10806 10804 10801 10801 10793 10785 10778 10776 10771 10767 10763 10759 10755 10749 10744 10740 10734 10730 10720 10707 10699 10692 10684 10677 10671 10665 10660 10653 10645 10638 10628 10619 10610 10600 10593 10582 10572 10560